Weather History for Rapid City, SD

Change the Weather History Date:

Tuesday, February 25, 2014

  Actual Average Record
Temperature  
Mean Temperature 7 °F 30 °F  
Max Temperature 15 °F 42 °F 72 °F (1999)
Min Temperature -1 °F 17 °F -16 °F (2011)
Degree Days  
Heating Degree Days 58 35  
Month to date heating degree days 1143 948  
Since 1 July heating degree days 5488 5104  
Cooling Degree Days 0 0  
Month to date cooling degree days 0 0  
Year to date cooling degree days 0 0  
Moisture  
Dew Point -1 °F    
Average Humidity 73    
Maximum Humidity 87    
Minimum Humidity 58    
Precipitation  
Precipitation T in 0.02 in 0.75 in (1998)
Month to date precipitation 0.23 0.37  
Year to date precipitation 0.45 0.67  
Snow  
Snow T in 0.30 in - ()
Month to date snowfall 5.5 5.0  
Since 1 July snowfall 42.1 22.6  
Snow Depth 1.00 in    
Sea Level Pressure  
Sea Level Pressure 30.49 in    
Wind  
Wind Speed 11 mph (North)    
Max Wind Speed 36 mph    
Max Gust Speed 44 mph    
Visibility 9 miles    
Events Snow    
T = Trace of Precipitation, MM = Missing Value Source: NWS Daily Summary

Daily Weather History Graph

Daily Weather History Graph

Search for Another Location

Airport:

Trip Planner

Search our weather history database for the weather conditions in past years. The results will help you decide how hot, cold, wet, or windy it might be!

Date:

Astronomy

Feb. 25, 2014 Rise Set
Actual Time 6:35 AM MST 5:35 PM MST
Civil Twilight 6:06 AM MST 6:04 PM MST
Nautical Twilight 5:33 AM MST 6:38 PM MST
Astronomical Twilight 4:59 AM MST 7:11 PM MST
Moon 3:38 AM MST (2/25) 1:38 PM MST (2/25)
Length of Visible Light 11h 57m
Length of Day
10h 59m
Waning Crescent, 17% of the Moon is Illuminated
Feb 25
Waning Crescent
Mar 1
New
Mar 8
First Quarter
Mar 16
Full
Mar 23
Last Quarter

Hourly Weather History & Observations

Time (MST) Temp. Windchill Dew Point Humidity Pressure Visibility Wind Dir Wind Speed Gust Speed Precip Events Conditions
12:52 AM 3.0 °F - -2.9 °F 76% 30.49 in 10.0 mi Calm Calm - N/A   Overcast
1:11 AM 3.2 °F - -2.2 °F 78% 30.26 in 10.0 mi Calm Calm - N/A   Mostly Cloudy
1:26 AM 3.2 °F -6.2 °F -2.2 °F 78% 30.26 in 10.0 mi South 4.6 mph - N/A   Scattered Clouds
1:52 AM 3.9 °F -6.9 °F -2.0 °F 76% 30.49 in 10.0 mi South 5.8 mph - N/A   Scattered Clouds
2:52 AM 3.0 °F -6.4 °F -2.0 °F 80% 30.46 in 10.0 mi SE 4.6 mph - N/A   Overcast
3:52 AM 3.0 °F - -2.9 °F 76% 30.47 in 10.0 mi Calm Calm - N/A   Overcast
4:52 AM 3.9 °F - -2.0 °F 76% 30.47 in 8.0 mi Calm Calm - 0.00 in Snow Light Snow
5:52 AM 5.0 °F - -2.0 °F 73% 30.48 in 10.0 mi Calm Calm - 0.00 in   Overcast
6:52 AM 5.0 °F -2.1 °F -2.0 °F 73% 30.51 in 10.0 mi North 3.5 mph - N/A   Overcast
7:52 AM 6.1 °F -0.9 °F -0.0 °F 76% 30.53 in 9.0 mi NNW 3.5 mph - 0.00 in   Overcast
8:35 AM 8.6 °F - 1.4 °F 73% 30.30 in 3.0 mi Calm Calm - 0.00 in   Haze
8:42 AM 8.6 °F - 1.4 °F 73% 30.30 in 3.0 mi Calm Calm - 0.00 in   Haze
8:52 AM 8.1 °F - -0.0 °F 70% 30.54 in 3.0 mi Calm Calm - 0.00 in   Haze
9:52 AM 9.0 °F -5.9 °F 1.9 °F 73% 30.58 in 10.0 mi North 11.5 mph - N/A   Mostly Cloudy
10:19 AM 10.4 °F -4.8 °F 3.2 °F 73% 30.35 in 10.0 mi North 12.7 mph - N/A   Scattered Clouds
10:52 AM 10.0 °F -6.5 °F 3.0 °F 73% 30.59 in 10.0 mi North 15.0 mph 19.6 mph N/A   Clear
11:52 AM 10.9 °F -6.5 °F 3.0 °F 70% 30.57 in 10.0 mi NNW 17.3 mph - N/A   Clear
12:52 PM 14.0 °F -5.1 °F 1.0 °F 56% 30.54 in 10.0 mi NNW 24.2 mph 31.1 mph N/A   Clear
1:52 PM 14.0 °F -5.1 °F 3.0 °F 62% 30.53 in 10.0 mi North 24.2 mph 32.2 mph N/A   Clear
2:52 PM 14.0 °F -6.8 °F 1.0 °F 56% 30.51 in 10.0 mi North 29.9 mph 39.1 mph N/A   Clear
3:52 PM 12.0 °F -8.1 °F 1.0 °F 61% 30.52 in 10.0 mi North 25.3 mph 36.8 mph N/A   Clear
4:52 PM 10.0 °F -11.5 °F -0.0 °F 64% 30.54 in 10.0 mi North 27.6 mph 35.7 mph N/A   Clear
5:52 PM 6.1 °F -14.3 °F -2.0 °F 69% 30.58 in 10.0 mi North 20.7 mph - N/A   Clear
6:52 PM 3.9 °F -10.4 °F -2.9 °F 73% 30.60 in 10.0 mi WNW 9.2 mph - N/A   Clear
7:52 PM 3.0 °F -13.3 °F -4.0 °F 73% 30.58 in 10.0 mi North 11.5 mph - N/A   Clear
8:52 PM -0.0 °F -9.9 °F -7.1 °F 72% 30.56 in 10.0 mi NNW 4.6 mph - N/A   Clear
9:52 PM 1.0 °F -10.3 °F -4.0 °F 79% 30.53 in 10.0 mi South 5.8 mph - N/A   Clear
10:52 PM 1.9 °F -9.2 °F -2.9 °F 80% 30.48 in 10.0 mi SSE 5.8 mph - N/A   Clear
11:52 PM 1.0 °F -6.7 °F -5.1 °F 75% 30.44 in 10.0 mi SSE 3.5 mph - N/A   Clear